Location: ???????
(55.3754°N, 39.3545°E)
Time: 06:27:11
(UTC+00:00)

NOSS 3-1 (A) - Pass Details

Date: 14 April 2026
Orbit: 613 x 1593 km, 63.4° (Epoch: 10 January)

Event Time Altitude Azimuth Distance (km) Brightness Sun altitude
Rises 20:54:57 0° 310° (NW) 3,649 7.2 -24.7°
Reaches altitude 10° 20:57:17 10° 307° (NW) 2,827 6.5 -24.8°
Maximum altitude 21:03:59 62° 229° (SW) 1,352 4.0 -24.9°
Enters shadow 21:06:11 47° 175° (S) 1,642 4.2 -24.9°
